Regional Weather Roundup
Issued by NWS

Home | Current Version | Previous Version | Text Only | Print | Product List | Glossary Off
Versions: 1 2 3 4 5 6 7 8 9 10 11 12 13 14 15 16 17 18 19 20 21 22 23 24 25 26 27 28 29 30 31 32 33 34 35 36 37 38 39 40 41 42 43 44 45 46 47 48 49

000
ASUS43 KMPX 041710
RWRMN
WEATHER ROUNDUP FOR MINNESOTA
NATIONAL WEATHER SERVICE TWIN CITIES/CHANHASSEN MN
1200 PM CDT FRI SEP 04 2015


NOTE: "FAIR" INDICATES FEW OR NO CLOUDS BELOW 12,000 FEET WITH NO
SIGNIFICANT WEATHER AND/OR OBSTRUCTIONS TO VISIBILITY. N/A MEANS
CURRENT SKY AND/OR WEATHER CONDITIONS ARE NOT AVAILABLE.

MNZ060>063-068>070-041800-
   Twin Cities Metro

CITY           SKY/WX    TMP DP  RH WIND       PRES   REMARKS
TWIN CITIES    PTSUNNY   82  71  69 SE13      29.92F
ST PAUL        SUNNY     81  72  74 SE9       29.93F
CRYSTAL        MOSUNNY   82  70  66 E13       29.90F
BLAINE         MOSUNNY   82  72  69 SE10G18   29.92S
LAKEVILLE      SUNNY     82  73  74 SE10G16   29.93S
EDEN PRAIRIE   SUNNY     84  73  69 SE12      29.91S HX  90
SOUTH ST PAUL  SUNNY     82  70  66 SE7       29.93S
LAKE ELMO      FAIR      81  72  74 SE10      29.95F
$$
MNZ001>005-007-008-013>017-022>024-027-028-041800-
   Northwest Minnesota

CITY           SKY/WX    TMP DP  RH WIND       PRES   REMARKS
BEMIDJI        PTSUNNY   75  68  77 SE15G21   29.89R
HALLOCK        RAIN      75  73  94 E9        29.79F
ROSEAU         MOSUNNY   73  68  83 E8        29.86F
WARROAD        CLOUDY    73  70  88 SE8       29.88S
THIEF RVR FALL MOSUNNY   81  72  74 SE15      29.81F
CROOKSTON      PTSUNNY   81  72  74 S14       29.80R
FOSSTON        MOSUNNY   81  66  61 SE12      29.85R
DETROIT LAKES  CLOUDY    77  70  78 S14       29.87R
MOORHEAD       CLOUDY    82  70  65 S16       29.81R
PARK RAPIDS    PTSUNNY   79  68  69 SE14      29.89R
MAHNOMEN       PTSUNNY   78  70  75 S9G18     29.84R
$$
MNZ006-009>011-018-025>026-041800-
   North Central Minnesota

CITY           SKY/WX    TMP DP  RH WIND       PRES   REMARKS
BAUDETTE       MOSUNNY   79  68  69 SE15      29.89R
FLAG ISLAND    CLOUDY    72  64  78 E6        29.89S
INTL FALLS     SUNNY     80  67  64 SE13G23   29.93F
WASKISH        SUNNY     79  70  73 E15       29.90R
BIG FORK       CLOUDY    75  68  78 SE10G16   29.95R
LONGVILLE      SUNNY     79  70  73 SE6       29.91S
GRAND RAPIDS     N/A     75  66  73 SE13      29.95S
CRANE LAKE     SUNNY     77  63  61 SE8       29.98F
ORR            SUNNY     79  63  57 SE10      29.94F
COOK           SUNNY     79  66  65 SE7G17    29.98S
WALKER         FAIR      77  69  76 SE9       29.89S
$$
MNZ012-019>021-037-041800-
   Northeast Minnesota

CITY           SKY/WX    TMP DP  RH WIND       PRES   REMARKS
DULUTH         SUNNY     71  63  75 E15       30.00R
ELY            SUNNY     77  59  53 SE13G18   30.01F
HIBBING        PTSUNNY   77  67  71 SE12      29.98R
EVELETH        SUNNY     77  64  65 E8        30.00S
DULUTH HARBOR  MOSUNNY   63  61  94 E13       30.01R
TWO HARBORS    SUNNY     75  66  73 E14       30.00S
SILVER BAY     SUNNY     73  63  68 NE10      30.03R
GRAND MARAIS     N/A     64  55  72 NE7       30.06S
G MARAIS ARPRT SUNNY     72  59  64 E9        30.11S
$$
MNZ029>031-032-039>041-046>048-054>057-064-041800-
   West Central Minnesota

CITY           SKY/WX    TMP DP  RH WIND       PRES   REMARKS
FERGUS FALLS   CLOUDY    81  70  69 S13       29.83S THUNDER
WHEATON        TSTM      70  66  88 SE9       29.87S
MORRIS         CLOUDY    81  70  69 SW13      29.87R THUNDER
ALEXANDRIA     PTSUNNY   82  70  66 S15G22    29.91R
ELBOW LAKE     FAIR      78  71  78 S14       29.88R
WADENA         PTSUNNY   77  70  78 SE12      29.88R
GLENWOOD       PTSUNNY   82  72  69 S12       29.90R
APPLETON       CLOUDY    81  70  69 CALM      29.86R
BENSON         CLOUDY    82  70  65 SW7       29.88R
ORTONVILLE     CLOUDY    77  70  78 E1        29.85F
MADISON        CLOUDY    81  70  69 CALM      29.86R
WILLMAR        FAIR      82  72  69 SW8       29.90R
$$
MNZ033>034-036-042>043-049>051-058-059-041800-
   Central Minnesota

CITY           SKY/WX    TMP DP  RH WIND       PRES   REMARKS
ST CLOUD       SUNNY     83  72  69 S14G22    29.90R
SAUK CENTRE    PTSUNNY   83  72  69 S12G20    29.90R
PAYNESVILLE    MOSUNNY   82  70  66 E8        29.90R
AITKIN         SUNNY     82  72  69 SE8       29.92R
PINE RIVER     SUNNY     79  70  73 SE12      29.94R
BRAINERD       MOSUNNY   81  69  67 SE10G20   29.91R
STAPLES        PTSUNNY   79  70  73 SE8       29.89R
LONG PRAIRIE   FAIR      81  70  69 SE14      29.90R
LITTLE FALLS   MOSUNNY   81  68  65 SE9       29.90R
LITCHFIELD     SUNNY     84  75  74 SE7       29.89R HX  92
BUFFALO        SUNNY     82  71  69 E9        29.91S
MAPLE LAKE     SUNNY     83  75  76 SE7       29.92R HX  90
$$
MNZ037-044-045-052-053-041800-
   East Central Minnesota

CITY           SKY/WX    TMP DP  RH WIND       PRES   REMARKS
PRINCETON      SUNNY     82  72  69 E9        29.91F
MORA           MOSUNNY   77  68  73 SE7       29.95S
CAMBRIDGE      SUNNY     82  70  65 E7        29.91S
RUSH CITY      SUNNY     80  70  70 SE10      29.94F
MOOSE LAKE     SUNNY     79  68  69 S6        29.95R
HINCKLEY       FAIR      81  72  74 SE9G16    29.95S
CLOQUET        SUNNY     72  63  73 E12       29.99R
MCGREGOR       MOSUNNY   79  70  73 SE10G16   29.95S
$$
MNZ071>073-080-081-089-090-097-098-041800-
   Southwest Minnesota

CITY           SKY/WX    TMP DP  RH WIND       PRES   REMARKS
MONTEVIDEO     CLOUDY    82  70  65 SW8       29.90R
GRANITE FALLS  PTSUNNY   83  72  68 S7        29.89S
CANBY          PTSUNNY   83  69  62 SW5       29.87S
MARSHALL       PTSUNNY   82  66  57 SW12      29.89F
REDWOOD FALLS  PTSUNNY   87  69  54 SW13      29.89R HX  91
OLIVIA         MOSUNNY   84  70  61 SW13G20   29.89R
PIPESTONE      PTSUNNY   82  68  61 SW7       29.90S
WINDOM         PTSUNNY   84  68  58 S6        29.91R
WORTHINGTON    PTSUNNY   82  70  65 S12       29.91S
JACKSON        PTSUNNY   81  72  74 S9        29.93R
TRACY          PTSUNNY   79  71  76 S5        29.90R
SLAYTON        PTSUNNY   80  71  75 CALM      29.92S
$$
MNZ065>067-074>077-082>085-091>093-041800-
   South Central Minnesota

CITY           SKY/WX    TMP DP  RH WIND       PRES   REMARKS
MANKATO        SUNNY     84  72  65 S12       29.90S
NEW ULM        SUNNY     84  72  65 SW9       29.90R
ST JAMES       MOSUNNY   84  72  65 S9        29.91R
FAIRMONT       MOSUNNY   82  68  61 S10       29.91R
GLENCOE        SUNNY     86  74  66 SE9       29.90S HX  94
FARIBAULT      SUNNY     82  73  74 SE12      29.93S
OWATONNA       SUNNY     84  72  65 S12       29.94S
WASECA         SUNNY     82  72  69 SE8       29.94S
ALBERT LEA     SUNNY     82  72  69 SE9       29.94F
$$
MNZ078>079-086>088-094>096-041800-
   Southeast Minnesota

CITY           SKY/WX    TMP DP  RH WIND       PRES   REMARKS
ROCHESTER      SUNNY     83  73  72 SE10      29.98F
RED WING       SUNNY     82  70  65 SE13      29.94F
STANTON        SUNNY     83  71  69 SE8       29.93S
DODGE CENTER   SUNNY     81  72  74 SE9       29.97S
WINONA         SUNNY     81  68  65 E8        29.98F
AUSTIN         SUNNY     82  73  74 SE10      29.96S
PRESTON        SUNNY     81  70  68 SE8       30.00F
$$
ABBREVIATIONS USED IN REMARKS
   TC - TEMPERATURES IN CELSIUS
  WCI - WIND CHILL INDEX
   HX - HEAT INDEX
  VSB - VISIBILITY
$$


USA.gov is the U.S. government's official web portal to all federal, state and local government web resources and services.